Weather History for Maxwell AFB, AL

Change the Weather History Date:

Sunday, June 16, 2013

  Actual Average Record
Temperature  
Mean Temperature 82 °F -  
Max Temperature 91 °F 87 °F 98 °F (2006)
Min Temperature 73 °F 69 °F 66 °F (2002)
Cooling Degree Days 17    
Growing Degree Days 32 (Base 50)    
Moisture  
Dew Point 70 °F    
Average Humidity 69    
Maximum Humidity 83    
Minimum Humidity 49    
Precipitation  
Precipitation 0.00 in - - ()
Sea Level Pressure  
Sea Level Pressure 30.04 in    
Wind  
Wind Speed 5 mph (SE)    
Max Wind Speed 10 mph    
Max Gust Speed -    
Visibility 10 miles    
Events Thunderstorm    
Averages and records for this station are not official NWS values.
T = Trace of Precipitation, MM = Missing Value Source: NWS Daily Summary

Daily Weather History Graph

Daily Weather History Graph

Search for Another Location

Airport:

Trip Planner

Search our weather history database for the weather conditions in past years. The results will help you decide how hot, cold, wet, or windy it might be!

Date:

Astronomy

Jun. 16, 2013 Rise Set
Actual Time 5:38 AM CDT 7:54 PM CDT
Civil Twilight 5:09 AM CDT 8:22 PM CDT
Nautical Twilight 4:34 AM CDT 8:57 PM CDT
Astronomical Twilight 3:57 AM CDT 9:35 PM CDT
Moon 12:49 PM CDT (6/16) 12:20 AM CDT (6/16)
Length of Visible Light 15h 13m
Length of Day
14h 16m
Waxing Crescent, 50% of the Moon is Illuminated
Jun 16
Waxing Crescent
Jun 16
First Quarter
Jun 23
Full
Jun 29
Last Quarter
Jul 8
New

Hourly Weather History & Observations

Time (CDT) Temp. Heat Index Dew Point Humidity Pressure Visibility Wind Dir Wind Speed Gust Speed Precip Events Conditions
12:56 AM 77.0 °F - 68.0 °F 74% 30.05 in 10.0 mi NNE 4.6 mph - N/A   Mostly Cloudy
1:56 AM 77.0 °F - 66.2 °F 69% 30.05 in 10.0 mi NE 3.5 mph - N/A   Scattered Clouds
2:56 AM 73.4 °F - 66.2 °F 78% 30.05 in 10.0 mi ENE 3.5 mph - N/A   Mostly Cloudy
3:56 AM 75.2 °F - 66.2 °F 73% 30.05 in 10.0 mi East 4.6 mph - N/A   Partly Cloudy
4:56 AM 73.4 °F - 68.0 °F 83% 30.06 in 10.0 mi NNE 2.3 mph - N/A   Overcast
5:56 AM 73.4 °F - 66.2 °F 78% 30.07 in 9.0 mi NE 2.3 mph - N/A   Clear
6:13 AM 73.4 °F - 68.0 °F 83% 30.07 in 10.0 mi ENE 3.5 mph - N/A   Mostly Cloudy
6:56 AM 75.2 °F - 66.2 °F 73% 30.09 in 10.0 mi SE 6.9 mph - N/A   Mostly Cloudy
7:04 AM 77.0 °F - 66.2 °F 69% 30.09 in 10.0 mi SE 5.8 mph - N/A   Scattered Clouds
7:13 AM 75.2 °F - 66.2 °F 73% 30.09 in 10.0 mi ESE 8.1 mph - N/A   Mostly Cloudy
7:35 AM 77.0 °F - 68.0 °F 74% 30.09 in 10.0 mi ESE 5.8 mph - N/A   Scattered Clouds
7:56 AM 78.8 °F - 69.8 °F 74% 30.10 in 10.0 mi SSE 10.4 mph - N/A   Partly Cloudy
8:56 AM 78.8 °F - 71.6 °F 78% 30.11 in 10.0 mi SSE 5.8 mph - N/A   Mostly Cloudy
9:56 AM 82.4 °F 88.2 °F 73.4 °F 74% 30.10 in 10.0 mi SSE 8.1 mph - N/A   Mostly Cloudy
10:56 AM 86.0 °F 93.4 °F 73.4 °F 66% 30.09 in 10.0 mi South 6.9 mph - N/A   Scattered Clouds
11:56 AM 87.8 °F 95.6 °F 73.4 °F 62% 30.08 in 10.0 mi Variable 6.9 mph - N/A   Scattered Clouds
12:56 PM 89.6 °F 96.2 °F 71.6 °F 55% 30.05 in 10.0 mi SW 3.5 mph - N/A   Scattered Clouds
1:56 PM 91.4 °F 96.8 °F 69.8 °F 49% 30.03 in 10.0 mi SSE 3.5 mph - N/A   Partly Cloudy
2:56 PM 91.4 °F 96.8 °F 69.8 °F 49% 30.01 in 10.0 mi SSE 6.9 mph - N/A   Scattered Clouds
3:56 PM 91.4 °F 98.4 °F 71.6 °F 52% 30.00 in 10.0 mi SSE 4.6 mph - N/A   Scattered Clouds
4:56 PM 91.4 °F 96.8 °F 69.8 °F 49% 29.99 in 10.0 mi ESE 9.2 mph - N/A   Mostly Cloudy
5:56 PM 89.6 °F 96.2 °F 71.6 °F 55% 29.99 in 10.0 mi SE 6.9 mph - N/A   Partly Cloudy
6:56 PM 87.8 °F 93.8 °F 71.6 °F 58% 29.98 in 10.0 mi SE 8.1 mph - N/A   Overcast
7:38 PM 86.0 °F 93.4 °F 73.4 °F 66% 30.00 in 10.0 mi South 5.8 mph - N/A Thunderstorm Thunderstorm
7:56 PM 84.2 °F 90.9 °F 73.4 °F 70% 30.00 in 10.0 mi South 5.8 mph - N/A Thunderstorm Thunderstorm
8:03 PM 84.2 °F 90.9 °F 73.4 °F 70% 30.00 in 10.0 mi South 4.6 mph - N/A   Mostly Cloudy
8:56 PM 82.4 °F 88.2 °F 73.4 °F 74% 30.00 in 10.0 mi NNE 3.5 mph - N/A   Clear
9:56 PM 78.8 °F - 73.4 °F 83% 30.01 in 10.0 mi Calm Calm - N/A   Clear
10:56 PM 80.6 °F 85.4 °F 73.4 °F 79% 30.02 in 10.0 mi SSW 3.5 mph - N/A   Scattered Clouds
11:56 PM 78.8 °F - 73.4 °F 83% 30.02 in 10.0 mi South 4.6 mph - N/A   Mostly Cloudy